Find Galaxy 11

NORAD ID: 26038 Int'l Des: 1999-071 Owner: PAN Country: US operational
HEOCIRCULAR

リアルタイム位置

3D地球を読み込み中...

Galaxy 11について

説明を読み込み中...

次回通過

Passes for default location (London). Set your location on the main map for personalized predictions.

高度履歴

Loading altitude history...

軌道要素

1 26038U 99071A 26106.93238552 -.00000023 00000-0 00000-0 0 9993
2 26038 6.5915 71.3474 0012661 319.1618 175.8885 0.99023238 96405
Epoch: Apr 16, 2026 • Age: 7 hours

現在のステータス

高度 36135.9 km
速度 3.06 km/s
衛星直下点 -5.32°S, 24.08°E
打ち上げ日 Dec 22, 1999
運用期間 26.3 years
タイプ other

技術仕様

分類 Payload
質量 4484.00 kg
乾燥質量 4400.00 kg
総質量 4484.00 kg
長さ 6.20 m
直径 3.30 m
スパン 34.00 m
形状 Box + 2 Pan
製造者 HSES
バスタイプ HS-702
フェーズステータス Renamed
所有者/国 PAN/US

Most Searched